THY1525 OMDB-LTFM

Flight info

Callsign THY1525
Flight time 4h 50m
Altitude 36000
Route SENPA N571 ALPOB L768 VATIM L550 NOVPA J981 DATOK L550 GENIV L324 SAFTA DCT TOMBI UM855 LEMDA UA16 KFK UM855 SISPI
Aircraft B789/H-SDE1E2E3FGHIJ2J3J4J5M1RWXY/LB1D1

Departure

Time 2026-04-26 16:45
Airport Dubai International Airport (OMDB)

Arrival

Time 2026-04-26 21:36
Airport İstanbul Airport (LTFM)
Time Latitude Longitude Altitude Speed Heading
2026-04-26 16:06 25.25847 55.34571 27 ft 0 kts 211°
2026-04-26 16:27 25.25865 55.34583 26 ft 4 kts 211°
2026-04-26 16:27 25.25888 55.34598 25 ft 4 kts 204°
2026-04-26 16:28 25.25913 55.34606 25 ft 4 kts 181°
2026-04-26 16:28 25.25939 55.34602 25 ft 4 kts 149°
2026-04-26 16:28 25.25953 55.34588 25 ft 1 kts 122°
2026-04-26 16:28 25.25955 55.34585 24 ft 0 kts 122°
2026-04-26 16:31 25.25946 55.34601 27 ft 4 kts 122°
2026-04-26 16:32 25.25927 55.34634 27 ft 6 kts 122°
2026-04-26 16:32 25.25912 55.34662 27 ft 8 kts 122°
2026-04-26 16:32 25.25858 55.34757 27 ft 14 kts 121°
2026-04-26 16:32 25.25806 55.34851 27 ft 15 kts 122°
2026-04-26 16:33 25.25775 55.34906 27 ft 0 kts 118°
2026-04-26 16:33 25.25775 55.34907 27 ft 1 kts 118°
2026-04-26 16:33 25.25770 55.34917 27 ft 2 kts 118°
2026-04-26 16:34 25.25750 55.34959 27 ft 9 kts 114°
2026-04-26 16:34 25.25757 55.34994 27 ft 4 kts 53°
2026-04-26 16:34 25.25801 55.35028 27 ft 10 kts 32°
2026-04-26 16:34 25.25867 55.35072 27 ft 15 kts 31°
2026-04-26 16:35 25.25982 55.35149 27 ft 22 kts 31°
2026-04-26 16:35 25.26075 55.35210 27 ft 9 kts 31°
2026-04-26 16:35 25.26082 55.35215 27 ft 1 kts 31°
2026-04-26 16:35 25.26102 55.35229 28 ft 5 kts 31°
2026-04-26 16:36 25.26133 55.35258 28 ft 10 kts 59°
2026-04-26 16:36 25.26088 55.35382 27 ft 24 kts 122°
2026-04-26 16:36 25.25999 55.35539 27 ft 24 kts 122°
2026-04-26 16:36 25.25909 55.35698 27 ft 25 kts 122°
2026-04-26 16:37 25.25818 55.35859 28 ft 25 kts 122°
2026-04-26 16:37 25.25728 55.36020 28 ft 25 kts 121°
2026-04-26 16:37 25.25639 55.36182 28 ft 25 kts 122°
2026-04-26 16:37 25.25576 55.36290 28 ft 25 kts 122°
2026-04-26 16:38 25.25453 55.36507 28 ft 25 kts 122°
2026-04-26 16:38 25.25361 55.36674 27 ft 26 kts 121°
2026-04-26 16:38 25.25267 55.36842 27 ft 26 kts 122°
2026-04-26 16:38 25.25172 55.37008 28 ft 25 kts 122°
2026-04-26 16:39 25.25079 55.37172 29 ft 25 kts 122°
2026-04-26 16:39 25.24987 55.37337 29 ft 25 kts 121°
2026-04-26 16:39 25.24895 55.37501 29 ft 25 kts 122°
2026-04-26 16:39 25.24801 55.37669 28 ft 26 kts 122°
2026-04-26 16:40 25.24748 55.37762 28 ft 8 kts 122°
2026-04-26 16:40 25.24736 55.37782 28 ft 0 kts 122°
2026-04-26 16:40 25.24734 55.37785 28 ft 1 kts 122°
2026-04-26 16:41 25.24729 55.37795 28 ft 0 kts 122°
2026-04-26 16:41 25.24727 55.37798 28 ft 1 kts 122°
2026-04-26 16:41 25.24723 55.37805 28 ft 0 kts 122°
2026-04-26 16:42 25.24717 55.37816 28 ft 4 kts 122°
2026-04-26 16:42 25.24708 55.37852 28 ft 4 kts 83°
2026-04-26 16:42 25.24721 55.37870 28 ft 3 kts 45°
2026-04-26 16:43 25.24733 55.37881 28 ft 0 kts 37°
2026-04-26 16:43 25.24742 55.37888 28 ft 9 kts 34°
2026-04-26 16:43 25.24805 55.37933 30 ft 10 kts 32°
2026-04-26 16:44 25.24858 55.37933 31 ft 5 kts 317°
2026-04-26 16:44 25.24864 55.37922 31 ft 0 kts 301°
2026-04-26 16:44 25.24864 55.37921 31 ft 0 kts 301°
2026-04-26 16:44 25.24935 55.37793 31 ft 52 kts 301°
2026-04-26 16:45 25.25245 55.37236 33 ft 119 kts 301°
2026-04-26 16:45 25.25782 55.36266 33 ft 174 kts 301°
2026-04-26 16:45 25.26436 55.35073 738 ft 173 kts 296°
2026-04-26 16:45 25.27064 55.33918 1681 ft 176 kts 298°
2026-04-26 16:46 25.27695 55.32801 2642 ft 170 kts 301°
2026-04-26 16:46 25.28349 55.31648 3214 ft 187 kts 302°
2026-04-26 16:46 25.29037 55.30430 4040 ft 182 kts 302°
2026-04-26 16:46 25.29685 55.29162 4655 ft 195 kts 290°
2026-04-26 16:47 25.29797 55.27784 5845 ft 173 kts 276°
2026-04-26 16:47 25.29820 55.26513 6729 ft 162 kts 277°
2026-04-26 16:47 25.29894 55.25199 6966 ft 189 kts 278°
2026-04-26 16:47 25.30012 55.23696 6982 ft 201 kts 278°
2026-04-26 16:48 25.30146 55.22057 7014 ft 228 kts 278°
2026-04-26 16:48 25.30286 55.20278 7013 ft 235 kts 278°
2026-04-26 16:48 25.30407 55.18683 6985 ft 240 kts 276°
2026-04-26 16:48 25.30282 55.16801 7003 ft 259 kts 266°
2026-04-26 16:49 25.30129 55.14734 7429 ft 273 kts 268°
2026-04-26 16:49 25.29985 55.12661 8523 ft 272 kts 268°
2026-04-26 16:49 25.29837 55.10715 9334 ft 278 kts 267°
2026-04-26 16:49 25.29699 55.08967 10083 ft 280 kts 267°
2026-04-26 16:50 25.29527 55.06750 10535 ft 302 kts 267°
2026-04-26 16:50 25.29343 55.04334 10759 ft 329 kts 266°
2026-04-26 16:50 25.29141 55.01716 10957 ft 353 kts 266°
2026-04-26 16:50 25.28931 54.99035 11724 ft 356 kts 266°
2026-04-26 16:51 25.28745 54.96655 12382 ft 359 kts 266°
2026-04-26 16:51 25.28587 54.94210 13078 ft 362 kts 270°
2026-04-26 16:51 25.28547 54.91450 13818 ft 366 kts 269°
2026-04-26 16:51 25.28444 54.88915 14467 ft 369 kts 268°
2026-04-26 16:52 25.28337 54.86147 14826 ft 379 kts 268°
2026-04-26 16:52 25.28283 54.84216 14870 ft 378 kts 269°
2026-04-26 16:52 25.28198 54.80719 14868 ft 375 kts 269°
2026-04-26 16:52 25.28114 54.77844 14866 ft 374 kts 268°
2026-04-26 16:53 25.28066 54.75430 14866 ft 373 kts 272°
2026-04-26 16:53 25.28524 54.72615 14877 ft 373 kts 284°
2026-04-26 16:53 25.29205 54.69843 14880 ft 374 kts 285°
2026-04-26 16:53 25.29924 54.67080 14882 ft 374 kts 285°
2026-04-26 16:54 25.30637 54.64313 14886 ft 374 kts 285°
2026-04-26 16:54 25.31217 54.61996 14893 ft 374 kts 285°
2026-04-26 16:54 25.31920 54.59179 14887 ft 370 kts 285°
2026-04-26 16:54 25.32612 54.56437 14885 ft 371 kts 285°
2026-04-26 16:55 25.33299 54.53727 14885 ft 372 kts 285°
2026-04-26 16:55 25.34086 54.50970 14887 ft 372 kts 286°
2026-04-26 16:55 25.34798 54.48221 14889 ft 372 kts 285°
2026-04-26 16:55 25.35515 54.45460 14888 ft 373 kts 286°
2026-04-26 16:56 25.37016 54.39987 14891 ft 372 kts 286°
2026-04-26 16:56 25.37745 54.37279 14891 ft 372 kts 286°
2026-04-26 16:56 25.38478 54.34534 14891 ft 372 kts 286°
2026-04-26 16:57 25.39217 54.31787 14889 ft 373 kts 286°
2026-04-26 16:57 25.39958 54.29040 14889 ft 372 kts 286°
2026-04-26 16:57 25.41322 54.23529 14887 ft 372 kts 286°
2026-04-26 16:58 25.42047 54.20782 14887 ft 373 kts 285°
2026-04-26 16:58 25.42286 54.19845 14889 ft 373 kts 285°
2026-04-26 16:58 25.44094 54.12474 14887 ft 371 kts 285°
2026-04-26 16:59 25.44783 54.09725 14887 ft 371 kts 285°
2026-04-26 16:59 25.46111 54.04204 14891 ft 372 kts 284°
2026-04-26 17:00 25.47440 53.98681 14890 ft 371 kts 284°
2026-04-26 17:00 25.48769 53.93169 14890 ft 371 kts 284°
2026-04-26 17:00 25.49429 53.90406 14890 ft 372 kts 284°
2026-04-26 17:01 25.50092 53.87635 14891 ft 371 kts 284°
2026-04-26 17:01 25.50754 53.84876 14891 ft 371 kts 284°
2026-04-26 17:01 25.51413 53.82125 14892 ft 370 kts 284°
2026-04-26 17:01 25.52074 53.79361 14892 ft 371 kts 284°
2026-04-26 17:02 25.52733 53.76603 14890 ft 371 kts 284°
2026-04-26 17:02 25.53384 53.73876 14892 ft 371 kts 284°
2026-04-26 17:02 25.54050 53.71099 15418 ft 372 kts 284°
2026-04-26 17:02 25.54714 53.68334 16220 ft 373 kts 284°
2026-04-26 17:03 25.55382 53.65540 16920 ft 377 kts 283°
2026-04-26 17:03 25.56053 53.62727 17619 ft 379 kts 283°
2026-04-26 17:03 25.56729 53.59891 18272 ft 382 kts 283°
2026-04-26 17:03 25.57412 53.57030 18884 ft 384 kts 283°
2026-04-26 17:04 25.58096 53.54162 19496 ft 386 kts 283°
2026-04-26 17:04 25.58781 53.51281 20104 ft 388 kts 283°
2026-04-26 17:04 25.59469 53.48386 20696 ft 389 kts 283°
2026-04-26 17:04 25.60161 53.45476 21250 ft 391 kts 283°
2026-04-26 17:05 25.60853 53.42560 21795 ft 393 kts 282°
2026-04-26 17:05 25.61314 53.40614 22155 ft 394 kts 282°
2026-04-26 17:05 25.62012 53.37667 22682 ft 396 kts 282°
2026-04-26 17:05 25.62712 53.34699 23200 ft 398 kts 282°
2026-04-26 17:06 25.63414 53.31723 23655 ft 400 kts 282°
2026-04-26 17:06 25.64119 53.28733 24054 ft 402 kts 282°
2026-04-26 17:06 25.64828 53.25724 24446 ft 405 kts 282°
2026-04-26 17:06 25.65541 53.22694 24791 ft 408 kts 282°
2026-04-26 17:07 25.66259 53.19636 25161 ft 410 kts 282°
2026-04-26 17:07 25.66974 53.16596 25753 ft 406 kts 282°
2026-04-26 17:07 25.67688 53.13550 26106 ft 409 kts 282°
2026-04-26 17:07 25.68405 53.10485 26484 ft 411 kts 282°
2026-04-26 17:08 25.69126 53.07407 26850 ft 414 kts 282°
2026-04-26 17:08 25.69851 53.04310 27237 ft 416 kts 282°
2026-04-26 17:08 25.70740 53.01243 27592 ft 421 kts 290°
2026-04-26 17:08 25.72012 52.98349 27951 ft 425 kts 294°
2026-04-26 17:09 25.73389 52.95429 28336 ft 427 kts 294°
2026-04-26 17:09 25.74319 52.93453 28604 ft 429 kts 294°
2026-04-26 17:09 25.76166 52.89551 29119 ft 432 kts 294°
2026-04-26 17:09 25.77566 52.86590 29500 ft 435 kts 294°
2026-04-26 17:10 25.78976 52.83601 29889 ft 437 kts 294°
2026-04-26 17:10 25.80388 52.80604 30236 ft 439 kts 295°
2026-04-26 17:10 25.81802 52.77605 30597 ft 440 kts 295°
2026-04-26 17:10 25.83223 52.74590 30959 ft 441 kts 295°
2026-04-26 17:11 25.84645 52.71568 31312 ft 442 kts 295°
2026-04-26 17:11 25.86071 52.68535 31659 ft 444 kts 295°
2026-04-26 17:11 25.87501 52.65494 32017 ft 445 kts 295°
2026-04-26 17:11 25.88934 52.62444 32355 ft 446 kts 295°
2026-04-26 17:12 25.91706 52.56260 32987 ft 448 kts 294°
2026-04-26 17:12 25.93090 52.53152 33420 ft 447 kts 294°
2026-04-26 17:13 25.95807 52.46997 34436 ft 441 kts 294°
2026-04-26 17:13 25.97149 52.43940 34779 ft 440 kts 294°
2026-04-26 17:13 25.99843 52.37842 35491 ft 439 kts 294°
2026-04-26 17:14 26.01201 52.34815 35840 ft 438 kts 294°
2026-04-26 17:14 26.05299 52.25637 35909 ft 438 kts 294°
2026-04-26 17:15 26.09343 52.16559 35930 ft 436 kts 294°
2026-04-26 17:16 26.12031 52.10510 35913 ft 435 kts 294°
2026-04-26 17:16 26.14708 52.04479 35914 ft 435 kts 294°
2026-04-26 17:17 26.17389 51.98430 35915 ft 437 kts 294°
2026-04-26 17:17 26.20120 51.92415 35917 ft 438 kts 294°
2026-04-26 17:18 26.22787 51.86313 35924 ft 438 kts 294°
2026-04-26 17:18 26.25472 51.80232 35923 ft 435 kts 294°
2026-04-26 17:19 26.29509 51.71188 35923 ft 434 kts 294°
2026-04-26 17:19 26.32192 51.65155 35925 ft 434 kts 294°
2026-04-26 17:20 26.34427 51.60147 35924 ft 434 kts 294°
2026-04-26 17:20 26.37551 51.53101 35938 ft 433 kts 291°
2026-04-26 17:21 26.39632 51.46837 35924 ft 430 kts 288°
2026-04-26 17:21 26.41651 51.40545 35929 ft 431 kts 288°
2026-04-26 17:22 26.43651 51.34269 35927 ft 432 kts 288°
2026-04-26 17:22 26.45674 51.27954 35921 ft 431 kts 287°
2026-04-26 17:23 26.47686 51.21641 35927 ft 430 kts 287°
2026-04-26 17:23 26.49688 51.15366 35949 ft 429 kts 287°
2026-04-26 17:24 26.51681 51.09098 35933 ft 428 kts 287°
2026-04-26 17:24 26.53678 51.02810 35935 ft 430 kts 287°
2026-04-26 17:25 26.55678 50.96502 35939 ft 431 kts 287°
2026-04-26 17:25 26.57673 50.90193 35940 ft 430 kts 287°
2026-04-26 17:26 26.59623 50.83886 35926 ft 429 kts 286°
2026-04-26 17:26 26.61579 50.77580 35946 ft 429 kts 286°
2026-04-26 17:27 26.63527 50.71281 35931 ft 428 kts 286°
2026-04-26 17:27 26.65442 50.64981 35936 ft 427 kts 285°
2026-04-26 17:28 26.67294 50.58652 35925 ft 429 kts 285°
2026-04-26 17:28 26.69183 50.52318 35934 ft 430 kts 285°
2026-04-26 17:29 26.70689 50.47026 35939 ft 429 kts 283°
2026-04-26 17:29 26.72623 50.39513 35951 ft 430 kts 284°
2026-04-26 17:30 26.74257 50.33158 35936 ft 425 kts 283°
2026-04-26 17:30 26.75911 50.26783 35930 ft 426 kts 286°
2026-04-26 17:31 26.77794 50.20507 35937 ft 427 kts 285°
2026-04-26 17:31 26.79682 50.14158 35939 ft 429 kts 286°
2026-04-26 17:32 26.81559 50.07865 35939 ft 428 kts 285°
2026-04-26 17:32 26.83438 50.01537 35953 ft 427 kts 285°
2026-04-26 17:33 26.85306 49.95244 35936 ft 425 kts 285°
2026-04-26 17:34 26.88096 49.85817 35938 ft 425 kts 285°
2026-04-26 17:34 26.89954 49.79526 35929 ft 425 kts 285°
2026-04-26 17:35 26.91805 49.73249 35932 ft 425 kts 285°
2026-04-26 17:35 26.93654 49.66968 35923 ft 424 kts 285°
2026-04-26 17:36 26.95495 49.60699 35923 ft 424 kts 285°
2026-04-26 17:36 26.97334 49.54427 35921 ft 423 kts 285°
2026-04-26 17:37 26.99153 49.48214 35922 ft 422 kts 285°
2026-04-26 17:37 27.01036 49.41979 35943 ft 424 kts 289°
2026-04-26 17:38 27.05257 49.33156 35929 ft 429 kts 295°
2026-04-26 17:38 27.08191 49.27327 35923 ft 429 kts 295°
2026-04-26 17:39 27.11147 49.21445 35924 ft 430 kts 295°
2026-04-26 17:39 27.14067 49.15625 35931 ft 431 kts 295°
2026-04-26 17:40 27.16031 49.11709 35936 ft 430 kts 295°
2026-04-26 17:40 27.19924 49.03933 35926 ft 429 kts 294°
2026-04-26 17:41 27.22835 48.98109 35927 ft 427 kts 294°
2026-04-26 17:41 27.25746 48.92271 35923 ft 427 kts 294°
2026-04-26 17:42 27.28651 48.86440 35923 ft 428 kts 294°
2026-04-26 17:42 27.31559 48.80593 35931 ft 428 kts 294°
2026-04-26 17:43 27.34458 48.74760 35942 ft 425 kts 294°
2026-04-26 17:43 27.37336 48.68955 35940 ft 425 kts 294°
2026-04-26 17:44 27.40215 48.63145 35933 ft 425 kts 294°
2026-04-26 17:44 27.43100 48.57313 35932 ft 427 kts 294°
2026-04-26 17:45 27.45991 48.51463 35954 ft 427 kts 294°
2026-04-26 17:45 27.48845 48.45680 35941 ft 424 kts 294°
2026-04-26 17:46 27.51721 48.39839 35936 ft 424 kts 294°
2026-04-26 17:46 27.54589 48.34011 35940 ft 426 kts 294°
2026-04-26 17:47 27.56494 48.30136 35944 ft 426 kts 294°
2026-04-26 17:47 27.60317 48.22359 35946 ft 426 kts 294°
2026-04-26 17:48 27.63182 48.16529 35942 ft 424 kts 294°
2026-04-26 17:48 27.66033 48.10716 35941 ft 424 kts 294°
2026-04-26 17:49 27.68881 48.04902 35938 ft 423 kts 294°
2026-04-26 17:49 27.71241 48.00073 35963 ft 423 kts 294°
2026-04-26 17:50 27.74073 47.94256 35953 ft 422 kts 294°
2026-04-26 17:50 27.76900 47.88449 35949 ft 422 kts 294°
2026-04-26 17:51 27.79721 47.82643 35949 ft 422 kts 294°
2026-04-26 17:51 27.82544 47.76827 35947 ft 422 kts 293°
2026-04-26 17:52 27.85012 47.70853 35961 ft 418 kts 285°
2026-04-26 17:52 27.86951 47.64631 35957 ft 420 kts 285°
2026-04-26 17:53 27.88884 47.58403 35953 ft 419 kts 285°
2026-04-26 17:54 27.91767 47.49096 35952 ft 418 kts 285°
2026-04-26 17:54 27.93679 47.42907 35973 ft 417 kts 285°
2026-04-26 17:55 27.95581 47.36739 35949 ft 418 kts 285°
2026-04-26 17:55 27.97494 47.30527 35942 ft 417 kts 285°
2026-04-26 17:56 27.99395 47.24343 35941 ft 417 kts 285°
2026-04-26 17:57 28.03206 47.11910 35946 ft 417 kts 285°
2026-04-26 17:57 28.05094 47.05731 35957 ft 419 kts 285°
2026-04-26 17:58 28.08899 46.93253 35961 ft 419 kts 285°
2026-04-26 17:59 28.11858 46.83947 35956 ft 419 kts 286°
2026-04-26 17:59 28.13918 46.77764 35953 ft 419 kts 286°
2026-04-26 18:00 28.15980 46.71576 35955 ft 420 kts 286°
2026-04-26 18:00 28.18043 46.65370 35957 ft 421 kts 286°
2026-04-26 18:01 28.20106 46.59156 35963 ft 421 kts 286°
2026-04-26 18:01 28.22166 46.52941 35961 ft 420 kts 286°
2026-04-26 18:02 28.23867 46.47798 35962 ft 419 kts 286°
2026-04-26 18:02 28.26238 46.40619 35960 ft 417 kts 286°
2026-04-26 18:03 28.28268 46.34461 35959 ft 417 kts 286°
2026-04-26 18:03 28.30301 46.28281 35961 ft 418 kts 286°
2026-04-26 18:04 28.32330 46.22104 35964 ft 418 kts 286°
2026-04-26 18:05 28.35379 46.12802 35970 ft 419 kts 286°
2026-04-26 18:05 28.37622 46.06679 35973 ft 420 kts 288°
2026-04-26 18:06 28.39886 46.00569 35972 ft 420 kts 288°
2026-04-26 18:06 28.42162 45.94462 35958 ft 419 kts 288°
2026-04-26 18:07 28.44408 45.88404 35938 ft 419 kts 288°
2026-04-26 18:07 28.46671 45.82299 35943 ft 419 kts 288°
2026-04-26 18:08 28.48931 45.76189 35937 ft 419 kts 288°
2026-04-26 18:08 28.51189 45.70078 35933 ft 419 kts 288°
2026-04-26 18:09 28.53444 45.63962 35938 ft 420 kts 288°
2026-04-26 18:09 28.55699 45.57836 35932 ft 420 kts 288°
2026-04-26 18:10 28.57952 45.51707 35931 ft 420 kts 288°
2026-04-26 18:10 28.60204 45.45571 35939 ft 420 kts 288°
2026-04-26 18:11 28.62453 45.39429 35935 ft 420 kts 288°
2026-04-26 18:11 28.64687 45.33322 35933 ft 422 kts 288°
2026-04-26 18:12 28.66941 45.27149 35937 ft 422 kts 287°
2026-04-26 18:12 28.69189 45.20982 35930 ft 421 kts 287°
2026-04-26 18:13 28.71425 45.14838 35929 ft 418 kts 287°
2026-04-26 18:13 28.73647 45.08719 35931 ft 419 kts 287°
2026-04-26 18:14 28.75873 45.02585 35930 ft 419 kts 287°
2026-04-26 18:14 28.78099 44.96436 35934 ft 419 kts 287°
2026-04-26 18:15 28.80320 44.90291 35931 ft 418 kts 287°
2026-04-26 18:15 28.82531 44.84164 35927 ft 417 kts 287°
2026-04-26 18:16 28.84737 44.78035 35921 ft 418 kts 286°
2026-04-26 18:16 28.86196 44.71693 35926 ft 412 kts 275°
2026-04-26 18:16 28.86480 44.68483 35922 ft 412 kts 273°
2026-04-26 18:17 28.87018 44.61967 35927 ft 413 kts 273°
2026-04-26 18:17 28.87534 44.55430 35916 ft 413 kts 273°
2026-04-26 18:18 28.88053 44.48928 35915 ft 410 kts 273°
2026-04-26 18:18 28.88563 44.42460 35914 ft 409 kts 273°
2026-04-26 18:19 28.89072 44.35974 35921 ft 411 kts 273°
2026-04-26 18:19 28.89579 44.29469 35917 ft 411 kts 272°
2026-04-26 18:20 28.90083 44.22965 35924 ft 411 kts 272°
2026-04-26 18:20 28.90500 44.17555 35920 ft 412 kts 272°
2026-04-26 18:21 28.91082 44.09947 35917 ft 412 kts 272°
2026-04-26 18:21 28.91578 44.03425 35919 ft 412 kts 272°
2026-04-26 18:22 28.92068 43.96939 35916 ft 412 kts 272°
2026-04-26 18:22 28.92557 43.90426 35914 ft 411 kts 272°
2026-04-26 18:23 28.93040 43.83942 35910 ft 409 kts 272°
2026-04-26 18:23 28.93520 43.77459 35911 ft 410 kts 272°
2026-04-26 18:24 28.93998 43.70970 35916 ft 410 kts 272°
2026-04-26 18:24 28.94472 43.64485 35908 ft 410 kts 272°
2026-04-26 18:25 28.94941 43.58023 35903 ft 411 kts 272°
2026-04-26 18:25 28.95409 43.51534 35907 ft 410 kts 272°
2026-04-26 18:26 28.95874 43.45038 35904 ft 410 kts 272°
2026-04-26 18:26 28.96337 43.38544 35909 ft 410 kts 272°
2026-04-26 18:27 28.96794 43.32073 35908 ft 408 kts 272°
2026-04-26 18:27 28.97244 43.25652 35907 ft 409 kts 272°
2026-04-26 18:28 28.97694 43.19195 35906 ft 407 kts 272°
2026-04-26 18:28 28.98141 43.12738 35905 ft 408 kts 272°
2026-04-26 18:29 28.98584 43.06281 35913 ft 408 kts 272°
2026-04-26 18:29 28.99027 42.99798 35911 ft 410 kts 272°
2026-04-26 18:30 28.99466 42.93326 35922 ft 408 kts 272°
2026-04-26 18:30 28.99899 42.86892 35917 ft 406 kts 272°
2026-04-26 18:31 29.00328 42.80455 35915 ft 407 kts 272°
2026-04-26 18:31 29.00756 42.74004 35918 ft 408 kts 271°
2026-04-26 18:32 29.01182 42.67526 35926 ft 409 kts 271°
2026-04-26 18:32 29.01607 42.61037 35956 ft 409 kts 271°
2026-04-26 18:33 29.02024 42.54604 35921 ft 407 kts 271°
2026-04-26 18:33 29.02438 42.48165 35922 ft 406 kts 271°
2026-04-26 18:34 29.02850 42.41722 35927 ft 407 kts 271°
2026-04-26 18:34 29.03262 42.35227 35939 ft 407 kts 271°
2026-04-26 18:35 29.03668 42.28768 35938 ft 408 kts 271°
2026-04-26 18:35 29.04072 42.22299 35940 ft 408 kts 271°
2026-04-26 18:36 29.04471 42.15867 35946 ft 408 kts 271°
2026-04-26 18:36 29.04866 42.09426 35943 ft 406 kts 271°
2026-04-26 18:37 29.05258 42.02987 35945 ft 406 kts 271°
2026-04-26 18:37 29.05649 41.96533 35949 ft 408 kts 271°
2026-04-26 18:38 29.05970 41.91172 35956 ft 406 kts 271°
2026-04-26 18:38 29.06349 41.84760 35952 ft 404 kts 271°
2026-04-26 18:39 29.06746 41.78004 35950 ft 404 kts 271°
2026-04-26 18:39 29.07145 41.71151 35966 ft 405 kts 271°
2026-04-26 18:40 29.07516 41.64730 35968 ft 404 kts 271°
2026-04-26 18:40 29.07883 41.58313 35974 ft 404 kts 271°
2026-04-26 18:41 29.08248 41.51888 35979 ft 405 kts 271°
2026-04-26 18:41 29.08607 41.45502 35982 ft 405 kts 271°
2026-04-26 18:42 29.08967 41.39075 35988 ft 405 kts 271°
2026-04-26 18:42 29.09327 41.32656 35988 ft 405 kts 271°
2026-04-26 18:43 29.09681 41.26237 35993 ft 404 kts 271°
2026-04-26 18:43 29.10033 41.19825 35988 ft 402 kts 271°
2026-04-26 18:44 29.10380 41.13437 35984 ft 403 kts 271°
2026-04-26 18:44 29.10726 41.07033 36005 ft 404 kts 271°
2026-04-26 18:45 29.11069 41.00614 36005 ft 405 kts 271°
2026-04-26 18:45 29.11409 40.94186 36004 ft 404 kts 271°
2026-04-26 18:46 29.11746 40.87762 36010 ft 405 kts 271°
2026-04-26 18:46 29.12080 40.81333 36013 ft 404 kts 271°
2026-04-26 18:47 29.12411 40.74918 36009 ft 404 kts 271°
2026-04-26 18:47 29.12736 40.68548 36016 ft 403 kts 271°
2026-04-26 18:48 29.13059 40.62149 36019 ft 403 kts 271°
2026-04-26 18:48 29.13210 40.55754 36027 ft 401 kts 266°
2026-04-26 18:49 29.13008 40.49383 36011 ft 400 kts 266°
2026-04-26 18:49 29.12799 40.43010 36017 ft 401 kts 266°
2026-04-26 18:50 29.12587 40.36619 36021 ft 402 kts 266°
2026-04-26 18:50 29.12372 40.30236 36014 ft 402 kts 266°
2026-04-26 18:51 29.12154 40.23850 36024 ft 401 kts 266°
2026-04-26 18:51 29.11933 40.17474 36011 ft 401 kts 266°
2026-04-26 18:52 29.11747 40.12174 36008 ft 401 kts 266°
2026-04-26 18:52 29.11521 40.05808 36011 ft 400 kts 266°
2026-04-26 18:53 29.11292 39.99446 36004 ft 401 kts 266°
2026-04-26 18:53 29.11060 39.93085 36004 ft 400 kts 266°
2026-04-26 18:54 29.11000 39.86718 36010 ft 401 kts 268°
2026-04-26 18:54 29.11014 39.80371 36020 ft 402 kts 268°
2026-04-26 18:55 29.11043 39.73954 36008 ft 404 kts 268°
2026-04-26 18:55 29.11062 39.67539 36008 ft 403 kts 268°
2026-04-26 18:56 29.11081 39.61128 36005 ft 403 kts 268°
2026-04-26 18:56 29.11096 39.54714 35996 ft 405 kts 267°
2026-04-26 18:57 29.11106 39.49335 35998 ft 407 kts 267°
2026-04-26 18:57 29.11117 39.41789 35993 ft 405 kts 267°
2026-04-26 18:58 29.11122 39.35359 35985 ft 404 kts 267°
2026-04-26 18:58 29.11125 39.28919 35995 ft 405 kts 267°
2026-04-26 18:59 29.11125 39.22514 35996 ft 406 kts 267°
2026-04-26 18:59 29.11121 39.16056 35991 ft 406 kts 267°
2026-04-26 19:00 29.11115 39.09609 35984 ft 405 kts 267°
2026-04-26 19:00 29.11105 39.03185 35983 ft 404 kts 267°
2026-04-26 19:01 29.11092 38.96772 35981 ft 404 kts 267°
2026-04-26 19:01 29.11076 38.90338 35976 ft 404 kts 267°
2026-04-26 19:02 29.11049 38.83923 35975 ft 402 kts 267°
2026-04-26 19:02 29.11026 38.78609 35976 ft 402 kts 267°
2026-04-26 19:03 29.10990 38.71134 35978 ft 403 kts 267°
2026-04-26 19:03 29.10956 38.64736 35999 ft 402 kts 267°
2026-04-26 19:04 29.10919 38.58371 35967 ft 399 kts 267°
2026-04-26 19:04 29.10879 38.52021 35969 ft 399 kts 267°
2026-04-26 19:05 29.10814 38.42513 35963 ft 399 kts 267°
2026-04-26 19:06 29.10766 38.36148 35967 ft 400 kts 267°
2026-04-26 19:06 29.10715 38.29822 35970 ft 401 kts 267°
2026-04-26 19:07 29.10662 38.23443 35970 ft 401 kts 267°
2026-04-26 19:07 29.10605 38.17074 35960 ft 401 kts 267°
2026-04-26 19:08 29.10545 38.10722 35963 ft 399 kts 267°
2026-04-26 19:08 29.10482 38.04381 35948 ft 399 kts 267°
2026-04-26 19:09 29.10416 37.98048 35952 ft 397 kts 267°
2026-04-26 19:09 29.10348 37.91726 35961 ft 398 kts 267°
2026-04-26 19:10 29.10276 37.85422 35960 ft 396 kts 267°
2026-04-26 19:10 29.10203 37.79162 35957 ft 396 kts 267°
2026-04-26 19:11 29.10125 37.72859 35964 ft 397 kts 267°
2026-04-26 19:11 29.10046 37.66545 35956 ft 396 kts 266°
2026-04-26 19:12 29.09963 37.60253 35959 ft 396 kts 266°
2026-04-26 19:12 29.09877 37.53965 35962 ft 395 kts 266°
2026-04-26 19:13 29.09800 37.47671 35965 ft 395 kts 267°
2026-04-26 19:13 29.09772 37.41392 35964 ft 394 kts 267°
2026-04-26 19:14 29.09716 37.35132 35962 ft 394 kts 267°
2026-04-26 19:14 29.09669 37.28889 35956 ft 393 kts 267°
2026-04-26 19:15 29.09613 37.22610 35970 ft 394 kts 267°
2026-04-26 19:15 29.09557 37.16320 35975 ft 396 kts 267°
2026-04-26 19:16 29.09497 37.10032 35972 ft 395 kts 267°
2026-04-26 19:16 29.09434 37.03742 35970 ft 396 kts 267°
2026-04-26 19:17 29.09369 36.97459 35961 ft 396 kts 267°
2026-04-26 19:17 29.09300 36.91150 35958 ft 397 kts 267°
2026-04-26 19:18 29.09228 36.84846 35956 ft 396 kts 267°
2026-04-26 19:18 29.09153 36.78554 35949 ft 396 kts 267°
2026-04-26 19:19 29.09076 36.72267 35943 ft 397 kts 267°
2026-04-26 19:19 29.08995 36.65926 35943 ft 399 kts 267°
2026-04-26 19:20 29.08911 36.59598 35928 ft 398 kts 267°
2026-04-26 19:20 29.08824 36.53262 35925 ft 399 kts 267°
2026-04-26 19:21 29.08734 36.46963 35930 ft 399 kts 266°
2026-04-26 19:21 29.08550 36.40617 35928 ft 399 kts 266°
2026-04-26 19:22 29.08382 36.34267 35919 ft 399 kts 266°
2026-04-26 19:22 29.08207 36.27921 35925 ft 399 kts 266°
2026-04-26 19:23 29.08029 36.21572 35919 ft 400 kts 266°
2026-04-26 19:23 29.07849 36.15216 35919 ft 400 kts 266°
2026-04-26 19:24 29.07664 36.08851 35918 ft 400 kts 266°
2026-04-26 19:24 29.07384 35.99365 35929 ft 400 kts 266°
2026-04-26 19:25 29.07256 35.95110 35927 ft 400 kts 266°
2026-04-26 19:25 29.07000 35.86682 35924 ft 398 kts 266°
2026-04-26 19:26 29.06803 35.80352 35935 ft 398 kts 266°
2026-04-26 19:26 29.06604 35.74033 35953 ft 399 kts 266°
2026-04-26 19:27 29.06400 35.67670 35954 ft 401 kts 266°
2026-04-26 19:27 29.06194 35.61302 35961 ft 401 kts 266°
2026-04-26 19:28 29.05984 35.54943 35963 ft 400 kts 266°
2026-04-26 19:28 29.05772 35.48591 35963 ft 400 kts 266°
2026-04-26 19:29 29.05556 35.42210 35966 ft 402 kts 266°
2026-04-26 19:29 29.05337 35.35822 35962 ft 402 kts 266°
2026-04-26 19:30 29.05115 35.29457 35960 ft 400 kts 266°
2026-04-26 19:30 29.04927 35.24174 35982 ft 400 kts 266°
2026-04-26 19:31 29.04664 35.16747 35947 ft 399 kts 266°
2026-04-26 19:31 29.04434 35.10425 35934 ft 397 kts 266°
2026-04-26 19:32 29.04203 35.04110 35915 ft 398 kts 265°
2026-04-26 19:32 29.03969 34.97816 35941 ft 400 kts 265°
2026-04-26 19:33 29.03730 34.91471 35919 ft 399 kts 265°
2026-04-26 19:33 29.03489 34.85143 35920 ft 397 kts 265°
2026-04-26 19:34 29.03384 34.78830 35910 ft 398 kts 266°
2026-04-26 19:34 29.03597 34.72512 35945 ft 402 kts 277°
2026-04-26 19:35 29.05806 34.66545 35927 ft 419 kts 297°
2026-04-26 19:35 29.07741 34.63978 35943 ft 434 kts 308°
2026-04-26 19:35 29.10185 34.61845 35953 ft 445 kts 315°
2026-04-26 19:36 29.13621 34.59210 35927 ft 444 kts 316°
2026-04-26 19:36 29.20469 34.54037 35942 ft 442 kts 315°
2026-04-26 19:37 29.25578 34.50145 35954 ft 441 kts 315°
2026-04-26 19:37 29.30695 34.46249 35961 ft 444 kts 316°
2026-04-26 19:38 29.34984 34.42980 35965 ft 446 kts 316°
2026-04-26 19:38 29.40151 34.39041 35977 ft 445 kts 316°
2026-04-26 19:39 29.45311 34.35095 35979 ft 446 kts 316°
2026-04-26 19:39 29.50468 34.31153 35987 ft 445 kts 316°
2026-04-26 19:40 29.55628 34.27199 35982 ft 445 kts 316°
2026-04-26 19:40 29.60810 34.23272 35977 ft 451 kts 320°
2026-04-26 19:41 29.66384 34.19866 35970 ft 454 kts 321°
2026-04-26 19:41 29.71035 34.17029 35971 ft 455 kts 321°
2026-04-26 19:42 29.77551 34.13035 35999 ft 459 kts 325°
2026-04-26 19:42 29.83269 34.09891 35976 ft 460 kts 326°
2026-04-26 19:43 29.89255 34.07136 35989 ft 464 kts 327°
2026-04-26 19:43 29.95135 34.04219 35983 ft 459 kts 326°
2026-04-26 19:44 30.01034 34.01370 35975 ft 460 kts 327°
2026-04-26 19:44 30.06926 33.98497 35983 ft 459 kts 326°
2026-04-26 19:45 30.12818 33.95622 35981 ft 460 kts 326°
2026-04-26 19:45 30.18719 33.92744 35986 ft 459 kts 327°
2026-04-26 19:46 30.24597 33.89869 35992 ft 459 kts 327°
2026-04-26 19:46 30.30483 33.86988 35991 ft 459 kts 326°
2026-04-26 19:47 30.35364 33.84595 35992 ft 459 kts 326°
2026-04-26 19:47 30.42244 33.81219 36028 ft 459 kts 327°
2026-04-26 19:48 30.48106 33.78338 36001 ft 460 kts 327°
2026-04-26 19:48 30.54004 33.75437 36001 ft 460 kts 327°
2026-04-26 19:49 30.59891 33.72535 36001 ft 459 kts 327°
2026-04-26 19:49 30.65769 33.69636 35997 ft 459 kts 327°
2026-04-26 19:50 30.71648 33.66729 35996 ft 461 kts 327°
2026-04-26 19:50 30.77559 33.63807 35997 ft 462 kts 327°
2026-04-26 19:51 30.83470 33.60878 35998 ft 462 kts 327°
2026-04-26 19:51 30.89379 33.57948 35995 ft 461 kts 327°
2026-04-26 19:52 30.95285 33.55014 35994 ft 462 kts 327°
2026-04-26 19:52 31.01209 33.52065 35982 ft 464 kts 327°
2026-04-26 19:53 31.07140 33.49115 35985 ft 463 kts 327°
2026-04-26 19:53 31.13068 33.46157 35975 ft 462 kts 327°
2026-04-26 19:54 31.18978 33.43207 35977 ft 461 kts 327°
2026-04-26 19:54 31.24869 33.40260 35973 ft 461 kts 327°
2026-04-26 19:55 31.30775 33.37302 35971 ft 462 kts 327°
2026-04-26 19:55 31.36694 33.34334 35981 ft 464 kts 327°
2026-04-26 19:56 31.42636 33.31350 35983 ft 465 kts 327°
2026-04-26 19:56 31.48538 33.28383 35983 ft 464 kts 327°
2026-04-26 19:57 31.54471 33.25394 35984 ft 465 kts 327°
2026-04-26 19:57 31.60422 33.22395 35982 ft 465 kts 327°
2026-04-26 19:58 31.66376 33.19388 35982 ft 465 kts 327°
2026-04-26 19:58 31.72310 33.16388 35981 ft 465 kts 327°
2026-04-26 19:59 31.78227 33.13319 35993 ft 458 kts 322°
2026-04-26 19:59 31.83282 33.09006 35998 ft 443 kts 307°
2026-04-26 20:00 31.87536 33.03778 35991 ft 442 kts 306°
2026-04-26 20:00 31.91760 32.98516 35991 ft 442 kts 306°
2026-04-26 20:01 31.95987 32.93254 35986 ft 442 kts 306°
2026-04-26 20:01 32.00212 32.87983 36003 ft 442 kts 306°
2026-04-26 20:02 32.04440 32.82704 35983 ft 442 kts 306°
2026-04-26 20:02 32.07935 32.78333 35984 ft 440 kts 306°
2026-04-26 20:03 32.12849 32.72176 35987 ft 442 kts 306°
2026-04-26 20:03 32.17074 32.66875 35982 ft 445 kts 306°
2026-04-26 20:04 32.21320 32.61543 36006 ft 445 kts 307°
2026-04-26 20:04 32.25562 32.56205 35986 ft 446 kts 307°
2026-04-26 20:05 32.29778 32.50895 35979 ft 445 kts 307°
2026-04-26 20:05 32.34010 32.45554 35978 ft 445 kts 307°
2026-04-26 20:06 32.38236 32.40214 35979 ft 444 kts 307°
2026-04-26 20:06 32.42460 32.34868 35975 ft 444 kts 307°
2026-04-26 20:07 32.46680 32.29519 35974 ft 445 kts 307°
2026-04-26 20:07 32.50907 32.24153 35988 ft 446 kts 307°
2026-04-26 20:08 32.55158 32.18750 35969 ft 448 kts 307°
2026-04-26 20:08 32.59385 32.13370 35965 ft 447 kts 307°
2026-04-26 20:09 32.64246 32.08693 35985 ft 458 kts 324°
2026-04-26 20:09 32.70261 32.05888 35970 ft 469 kts 337°
2026-04-26 20:10 32.76494 32.03663 35974 ft 467 kts 337°
2026-04-26 20:10 32.82308 32.01604 35961 ft 467 kts 338°
2026-04-26 20:11 32.88532 31.99385 35964 ft 466 kts 338°
2026-04-26 20:12 32.97848 31.96065 35958 ft 467 kts 338°
2026-04-26 20:12 33.04083 31.93838 35968 ft 468 kts 338°
2026-04-26 20:13 33.10330 31.91603 35964 ft 468 kts 338°
2026-04-26 20:13 33.16561 31.89372 35967 ft 467 kts 338°
2026-04-26 20:14 33.22765 31.87145 35956 ft 465 kts 338°
2026-04-26 20:14 33.28966 31.84917 35952 ft 466 kts 338°
2026-04-26 20:15 33.35194 31.82676 35957 ft 467 kts 339°
2026-04-26 20:15 33.41425 31.80431 35963 ft 468 kts 338°
2026-04-26 20:16 33.47659 31.78181 35962 ft 467 kts 339°
2026-04-26 20:16 33.53867 31.75936 35959 ft 466 kts 339°
2026-04-26 20:17 33.60066 31.73691 35957 ft 465 kts 339°
2026-04-26 20:17 33.66271 31.71442 35958 ft 466 kts 339°
2026-04-26 20:18 33.72480 31.69185 35957 ft 466 kts 339°
2026-04-26 20:18 33.78656 31.66939 35956 ft 466 kts 339°
2026-04-26 20:19 33.84869 31.64674 35957 ft 467 kts 340°
2026-04-26 20:19 33.91080 31.62406 35952 ft 466 kts 340°
2026-04-26 20:20 33.97290 31.60135 35950 ft 466 kts 340°
2026-04-26 20:20 34.03497 31.57861 35951 ft 466 kts 340°
2026-04-26 20:21 34.08657 31.55969 35951 ft 466 kts 340°
2026-04-26 20:21 34.14860 31.53690 35948 ft 466 kts 340°
2026-04-26 20:22 34.22073 31.51037 35952 ft 466 kts 340°
2026-04-26 20:22 34.27266 31.49123 35949 ft 465 kts 340°
2026-04-26 20:23 34.33447 31.46841 35931 ft 464 kts 341°
2026-04-26 20:23 34.39618 31.44562 35930 ft 463 kts 340°
2026-04-26 20:24 34.45771 31.42283 35934 ft 463 kts 340°
2026-04-26 20:24 34.51946 31.39995 35933 ft 464 kts 340°
2026-04-26 20:25 34.58093 31.37711 35934 ft 466 kts 341°
2026-04-26 20:25 34.64346 31.35387 35935 ft 467 kts 341°
2026-04-26 20:26 34.70509 31.33091 35933 ft 465 kts 341°
2026-04-26 20:26 34.76689 31.30786 35929 ft 464 kts 341°
2026-04-26 20:27 34.82859 31.28480 35929 ft 464 kts 341°
2026-04-26 20:27 34.89068 31.26157 35929 ft 466 kts 341°
2026-04-26 20:28 34.95235 31.23845 35937 ft 466 kts 341°
2026-04-26 20:28 35.01430 31.21520 35933 ft 463 kts 341°
2026-04-26 20:29 35.07568 31.19211 35932 ft 460 kts 342°
2026-04-26 20:29 35.13692 31.16906 35929 ft 459 kts 342°
2026-04-26 20:30 35.19771 31.14612 35934 ft 461 kts 342°
2026-04-26 20:30 35.25937 31.12284 35939 ft 462 kts 342°
2026-04-26 20:31 35.32051 31.09969 35929 ft 459 kts 342°
2026-04-26 20:31 35.38106 31.07676 35922 ft 456 kts 342°
2026-04-26 20:32 35.44176 31.05371 35929 ft 456 kts 342°
2026-04-26 20:32 35.50260 31.03058 35928 ft 457 kts 342°
2026-04-26 20:33 35.56319 31.00750 35928 ft 454 kts 342°
2026-04-26 20:33 35.62345 30.98454 35927 ft 453 kts 342°
2026-04-26 20:34 35.68332 30.96166 35933 ft 453 kts 342°
2026-04-26 20:34 35.74369 30.93856 35932 ft 449 kts 343°
2026-04-26 20:35 35.80286 30.91589 35929 ft 447 kts 343°
2026-04-26 20:35 35.86231 30.89307 35927 ft 446 kts 343°
2026-04-26 20:36 35.92156 30.87030 35929 ft 446 kts 343°
2026-04-26 20:36 35.98071 30.84753 35928 ft 447 kts 343°
2026-04-26 20:37 36.04060 30.82643 35947 ft 445 kts 352°
2026-04-26 20:37 36.10189 30.82239 35937 ft 445 kts 358°
2026-04-26 20:38 36.16373 30.82035 35936 ft 445 kts 358°
2026-04-26 20:38 36.22590 30.81828 35935 ft 445 kts 358°
2026-04-26 20:39 36.28745 30.81622 35932 ft 444 kts 358°
2026-04-26 20:39 36.34945 30.81416 35928 ft 443 kts 358°
2026-04-26 20:40 36.41070 30.81210 35920 ft 442 kts 358°
2026-04-26 20:40 36.47214 30.81000 35926 ft 443 kts 358°
2026-04-26 20:41 36.53384 30.80787 35931 ft 445 kts 358°
2026-04-26 20:41 36.59579 30.80574 35937 ft 446 kts 358°
2026-04-26 20:42 36.65762 30.80360 35940 ft 445 kts 358°
2026-04-26 20:42 36.71958 30.80146 35938 ft 442 kts 358°
2026-04-26 20:43 36.78084 30.79933 35942 ft 441 kts 358°
2026-04-26 20:43 36.84232 30.79720 35941 ft 441 kts 359°
2026-04-26 20:44 36.90329 30.79508 35935 ft 439 kts 359°
2026-04-26 20:44 36.96430 30.78903 35949 ft 439 kts 355°
2026-04-26 20:45 37.02503 30.78157 35950 ft 440 kts 355°
2026-04-26 20:45 37.08597 30.77396 35952 ft 440 kts 355°
2026-04-26 20:46 37.14674 30.76640 35956 ft 439 kts 355°
2026-04-26 20:46 37.20748 30.75882 35970 ft 438 kts 355°
2026-04-26 20:47 37.26785 30.75128 35980 ft 437 kts 355°
2026-04-26 20:47 37.32861 30.74368 35975 ft 437 kts 355°
2026-04-26 20:48 37.38897 30.73611 35997 ft 439 kts 355°
2026-04-26 20:48 37.44972 30.72812 36018 ft 439 kts 353°
2026-04-26 20:49 37.51059 30.71879 36018 ft 440 kts 354°
2026-04-26 20:49 37.57117 30.71019 36023 ft 438 kts 353°
2026-04-26 20:50 37.63185 30.70260 36039 ft 437 kts 354°
2026-04-26 20:50 37.69230 30.69472 36042 ft 437 kts 355°
2026-04-26 20:51 37.75291 30.68745 36051 ft 437 kts 354°
2026-04-26 20:51 37.81357 30.67980 36060 ft 438 kts 354°
2026-04-26 20:52 37.87423 30.67233 36062 ft 438 kts 354°
2026-04-26 20:52 37.93440 30.66415 36063 ft 437 kts 353°
2026-04-26 20:53 37.99480 30.65500 36040 ft 437 kts 353°
2026-04-26 20:53 38.05563 30.64733 36048 ft 437 kts 354°
2026-04-26 20:54 38.11581 30.63917 36048 ft 438 kts 354°
2026-04-26 20:54 38.17661 30.63115 36056 ft 439 kts 353°
2026-04-26 20:55 38.23728 30.62304 36060 ft 438 kts 353°
2026-04-26 20:55 38.29785 30.61496 36060 ft 438 kts 353°
2026-04-26 20:56 38.35844 30.60686 36057 ft 438 kts 353°
2026-04-26 20:56 38.41979 30.59863 36065 ft 452 kts 353°
2026-04-26 20:57 38.48319 30.59013 36071 ft 459 kts 353°
2026-04-26 20:57 38.54677 30.58159 36062 ft 459 kts 353°
2026-04-26 20:58 38.61029 30.57303 36069 ft 458 kts 353°
2026-04-26 20:58 38.67377 30.56447 36067 ft 458 kts 353°
2026-04-26 20:59 38.73675 30.55596 36070 ft 458 kts 353°
2026-04-26 20:59 38.79966 30.54458 36075 ft 456 kts 343°
2026-04-26 21:00 38.85790 30.51257 36071 ft 457 kts 334°
2026-04-26 21:00 38.91487 30.47616 36068 ft 458 kts 333°
2026-04-26 21:01 38.97187 30.43965 36064 ft 458 kts 333°
2026-04-26 21:01 39.02884 30.40314 36070 ft 457 kts 333°
2026-04-26 21:02 39.08589 30.36647 36071 ft 460 kts 333°
2026-04-26 21:02 39.14308 30.32967 36071 ft 459 kts 333°
2026-04-26 21:03 39.20018 30.29285 36070 ft 458 kts 333°
2026-04-26 21:03 39.25723 30.25600 36071 ft 458 kts 333°
2026-04-26 21:04 39.31399 30.21927 36070 ft 460 kts 333°
2026-04-26 21:04 39.37162 30.18190 36073 ft 461 kts 333°
2026-04-26 21:05 39.42855 30.14492 36077 ft 461 kts 333°
2026-04-26 21:05 39.48661 30.10978 36066 ft 461 kts 336°
2026-04-26 21:06 39.54554 30.07684 36078 ft 462 kts 336°
2026-04-26 21:06 39.60471 30.04393 36083 ft 462 kts 336°
2026-04-26 21:07 39.66375 30.01094 36079 ft 461 kts 336°
2026-04-26 21:07 39.72248 29.97808 36077 ft 460 kts 336°
2026-04-26 21:08 39.77115 29.95082 36061 ft 453 kts 335°
2026-04-26 21:08 39.82791 29.91891 36013 ft 437 kts 335°
2026-04-26 21:08 39.85575 29.90324 35699 ft 436 kts 335°
2026-04-26 21:09 39.88361 29.88755 35352 ft 437 kts 335°
2026-04-26 21:09 39.91157 29.87181 35008 ft 438 kts 336°
2026-04-26 21:09 39.94010 29.85789 34636 ft 439 kts 339°
2026-04-26 21:09 39.96872 29.84394 34297 ft 439 kts 338°
2026-04-26 21:10 39.99738 29.82985 33931 ft 440 kts 338°
2026-04-26 21:10 40.02610 29.81590 33502 ft 441 kts 338°
2026-04-26 21:10 40.05497 29.80194 33073 ft 442 kts 338°
2026-04-26 21:10 40.08341 29.78810 32666 ft 442 kts 338°
2026-04-26 21:11 40.11233 29.77397 32246 ft 443 kts 338°
2026-04-26 21:11 40.14126 29.75985 31810 ft 444 kts 338°
2026-04-26 21:11 40.17025 29.74572 31375 ft 445 kts 338°
2026-04-26 21:11 40.19930 29.73153 30932 ft 446 kts 338°
2026-04-26 21:12 40.22839 29.71729 30453 ft 448 kts 338°
2026-04-26 21:12 40.25769 29.70294 29964 ft 449 kts 338°
2026-04-26 21:12 40.28702 29.68858 29367 ft 450 kts 338°
2026-04-26 21:12 40.31643 29.67416 28757 ft 452 kts 338°
2026-04-26 21:13 40.34594 29.65967 28147 ft 454 kts 338°
2026-04-26 21:13 40.37555 29.64512 27507 ft 455 kts 338°
2026-04-26 21:13 40.40523 29.63053 26868 ft 457 kts 338°
2026-04-26 21:13 40.43504 29.61585 26362 ft 456 kts 338°
2026-04-26 21:14 40.46453 29.60133 25996 ft 451 kts 338°
2026-04-26 21:14 40.49388 29.58686 25557 ft 449 kts 338°
2026-04-26 21:14 40.52308 29.57244 25143 ft 446 kts 338°
2026-04-26 21:14 40.55208 29.55811 24733 ft 444 kts 338°
2026-04-26 21:15 40.58095 29.54383 24344 ft 442 kts 338°
2026-04-26 21:15 40.60957 29.52966 23983 ft 439 kts 338°
2026-04-26 21:15 40.63810 29.51553 23632 ft 437 kts 338°
2026-04-26 21:15 40.66651 29.50144 23246 ft 434 kts 338°
2026-04-26 21:16 40.69470 29.48745 22862 ft 431 kts 338°
2026-04-26 21:16 40.72275 29.47351 22470 ft 429 kts 338°
2026-04-26 21:16 40.75061 29.45966 22122 ft 427 kts 338°
2026-04-26 21:16 40.77831 29.44587 21758 ft 424 kts 338°
2026-04-26 21:17 40.80585 29.43215 21409 ft 422 kts 338°
2026-04-26 21:17 40.83292 29.41866 21082 ft 420 kts 338°
2026-04-26 21:17 40.86050 29.40489 20762 ft 418 kts 338°
2026-04-26 21:17 40.88760 29.39135 20451 ft 416 kts 338°
2026-04-26 21:18 40.91425 29.37803 20155 ft 414 kts 338°
2026-04-26 21:18 40.94113 29.36458 19863 ft 412 kts 338°
2026-04-26 21:18 40.96784 29.35120 19580 ft 410 kts 338°
2026-04-26 21:18 40.99445 29.33787 19287 ft 408 kts 338°
2026-04-26 21:19 41.02079 29.32466 18659 ft 403 kts 338°
2026-04-26 21:19 41.04686 29.31157 17856 ft 398 kts 338°
2026-04-26 21:19 41.07253 29.29867 17130 ft 390 kts 338°
2026-04-26 21:19 41.09722 29.28626 16452 ft 369 kts 338°
2026-04-26 21:20 41.12067 29.27447 15812 ft 352 kts 338°
2026-04-26 21:20 41.14300 29.26321 15195 ft 336 kts 338°
2026-04-26 21:20 41.16447 29.25239 14582 ft 324 kts 338°
2026-04-26 21:20 41.18551 29.24176 13974 ft 325 kts 338°
2026-04-26 21:21 41.20668 29.23106 13323 ft 325 kts 338°
2026-04-26 21:21 41.22774 29.22042 12708 ft 323 kts 338°
2026-04-26 21:21 41.24868 29.20985 12118 ft 317 kts 338°
2026-04-26 21:21 41.26914 29.19951 11524 ft 315 kts 338°
2026-04-26 21:22 41.28967 29.18910 11081 ft 314 kts 338°
2026-04-26 21:22 41.31005 29.17879 10926 ft 314 kts 338°
2026-04-26 21:22 41.33061 29.16837 10827 ft 318 kts 338°
2026-04-26 21:23 41.36944 29.14871 10513 ft 266 kts 338°
2026-04-26 21:23 41.38673 29.13991 10391 ft 269 kts 338°
2026-04-26 21:23 41.40425 29.13098 10107 ft 267 kts 338°
2026-04-26 21:23 41.42130 29.12232 9824 ft 267 kts 338°
2026-04-26 21:24 41.43882 29.11341 9524 ft 267 kts 338°
2026-04-26 21:24 41.45592 29.10471 9214 ft 265 kts 338°
2026-04-26 21:24 41.47310 29.09596 8940 ft 262 kts 338°
2026-04-26 21:24 41.48992 29.08739 8656 ft 259 kts 338°
2026-04-26 21:25 41.50683 29.07877 8375 ft 260 kts 338°
2026-04-26 21:25 41.52368 29.07018 8083 ft 257 kts 338°
2026-04-26 21:25 41.54020 29.06175 7799 ft 255 kts 338°
2026-04-26 21:25 41.55652 29.05342 7517 ft 247 kts 338°
2026-04-26 21:26 41.57256 29.04521 7252 ft 249 kts 338°
2026-04-26 21:26 41.58877 29.03691 6961 ft 247 kts 338°
2026-04-26 21:26 41.60363 29.02579 6672 ft 244 kts 317°
2026-04-26 21:26 41.61354 29.00785 6406 ft 243 kts 296°
2026-04-26 21:27 41.61722 28.98558 6179 ft 251 kts 273°
2026-04-26 21:27 41.61518 28.96246 5938 ft 253 kts 265°
2026-04-26 21:27 41.61248 28.93947 5687 ft 249 kts 265°
2026-04-26 21:27 41.60974 28.91652 5441 ft 251 kts 265°
2026-04-26 21:28 41.60711 28.89350 5197 ft 252 kts 265°
2026-04-26 21:28 41.60535 28.87065 5115 ft 244 kts 267°
2026-04-26 21:28 41.60272 28.84779 5126 ft 251 kts 265°
2026-04-26 21:28 41.60007 28.82500 5120 ft 253 kts 265°
2026-04-26 21:29 41.59771 28.80151 5133 ft 256 kts 266°
2026-04-26 21:29 41.59541 28.77797 5140 ft 254 kts 266°
2026-04-26 21:29 41.59224 28.75566 5110 ft 237 kts 255°
2026-04-26 21:29 41.58356 28.73718 5057 ft 238 kts 229°
2026-04-26 21:30 41.56971 28.72519 5006 ft 241 kts 202°
2026-04-26 21:30 41.55534 28.72203 5006 ft 242 kts 181°
2026-04-26 21:30 41.53846 28.72169 4929 ft 245 kts 185°
2026-04-26 21:30 41.52142 28.72171 4603 ft 245 kts 181°
2026-04-26 21:31 41.50442 28.72210 4282 ft 244 kts 181°
2026-04-26 21:31 41.48751 28.72249 3985 ft 240 kts 181°
2026-04-26 21:31 41.47114 28.72289 3676 ft 232 kts 181°
2026-04-26 21:31 41.45522 28.72328 3374 ft 225 kts 181°
2026-04-26 21:32 41.43980 28.72365 3074 ft 218 kts 181°
2026-04-26 21:32 41.42488 28.72402 2766 ft 211 kts 181°
2026-04-26 21:32 41.41066 28.72437 2498 ft 203 kts 181°
2026-04-26 21:32 41.39676 28.72473 2232 ft 188 kts 182°
2026-04-26 21:33 41.38438 28.72494 1988 ft 172 kts 182°
2026-04-26 21:33 41.37275 28.72525 1769 ft 166 kts 183°
2026-04-26 21:33 41.36133 28.72551 1551 ft 163 kts 183°
2026-04-26 21:33 41.35018 28.72574 1345 ft 158 kts 181°
2026-04-26 21:34 41.33931 28.72600 1149 ft 155 kts 182°
2026-04-26 21:34 41.32884 28.72638 999 ft 149 kts 181°
2026-04-26 21:34 41.31847 28.72658 815 ft 148 kts 184°
2026-04-26 21:34 41.30836 28.72677 604 ft 143 kts 183°
2026-04-26 21:35 41.29839 28.72698 387 ft 143 kts 183°
2026-04-26 21:35 41.28947 28.72709 336 ft 102 kts 179°
2026-04-26 21:35 41.28420 28.72722 340 ft 58 kts 179°
2026-04-26 21:35 41.28035 28.72737 338 ft 51 kts 180°
2026-04-26 21:36 41.27711 28.72742 336 ft 39 kts 177°
2026-04-26 21:36 41.27564 28.72787 336 ft 32 kts 153°
2026-04-26 21:36 41.27357 28.72949 336 ft 13 kts 151°
2026-04-26 21:36 41.27265 28.72979 335 ft 14 kts 177°
2026-04-26 21:37 41.27181 28.72983 335 ft 16 kts 178°
2026-04-26 21:37 41.27074 28.72985 339 ft 17 kts 179°
2026-04-26 21:37 41.27004 28.72986 336 ft 10 kts 180°
2026-04-26 21:37 41.26918 28.72986 336 ft 11 kts 180°
2026-04-26 21:38 41.26868 28.73048 335 ft 13 kts 98°
2026-04-26 21:38 41.26868 28.73197 336 ft 18 kts 89°
2026-04-26 21:38 41.26858 28.73315 335 ft 11 kts 124°
2026-04-26 21:38 41.26767 28.73331 340 ft 16 kts 179°
2026-04-26 21:39 41.26641 28.73338 335 ft 19 kts 171°
2026-04-26 21:39 41.26553 28.73375 335 ft 6 kts 157°
2026-04-26 21:39 41.26535 28.73414 337 ft 4 kts 98°
2026-04-26 21:39 41.26542 28.73457 335 ft 6 kts 73°
2026-04-26 21:40 41.26551 28.73492 337 ft 1 kts 71°
2026-04-26 21:40 41.26551 28.73494 337 ft 0 kts 71°